| time (UTC) | temp C | wind direction | speed KPH | gust KPH | rain 1hr cm | rain 24hr cm | rain mn cm | humidity % | barometer mb |
| 20260504081528 | 11 | 30 | 0.0 | 0.0 | 0.00 | 0.00 | 0.00 | 42 | 1008.8 |
| 20260504044548 | 14 | 30 | 0.0 | 0.0 | 0.00 | 0.00 | 0.03 | 33 | 1008.5 |
| 20260504043048 | 15 | 30 | 0.0 | 0.0 | 0.00 | 0.00 | 0.03 | 33 | 1008.6 |
| 20260504041547 | 15 | 30 | 0.0 | 0.0 | 0.00 | 0.00 | 0.03 | 31 | 1008.5 |
| 20260504040110 | 16 | 30 | 0.0 | 0.0 | 0.00 | 0.00 | 0.03 | 29 | 1008.4 |
| 20260504034547 | 16 | 30 | 0.0 | 0.0 | 0.00 | 0.00 | 0.03 | 28 | 1008.4 |
| 20260504033035 | 17 | 30 | 0.0 | 0.0 | 0.00 | 0.00 | 0.03 | 26 | 1008.2 |
| 20260504031536 | 17 | 30 | 0.0 | 0.0 | 0.00 | 0.00 | 0.03 | 27 | 1008.1 |
| 20260504030033 | 17 | 30 | 0.0 | 0.0 | 0.00 | 0.00 | 0.03 | 24 | 1008.1 |
| 20260504024533 | 18 | 30 | 0.0 | 0.0 | 0.00 | 0.00 | 0.03 | 24 | 1007.9 |
| 20260504023032 | 18 | 30 | 0.0 | 0.0 | 0.00 | 0.00 | 0.03 | 25 | 1007.8 |
| 20260504021532 | 19 | 30 | 0.0 | 0.0 | 0.00 | 0.00 | 0.03 | 25 | 1007.8 |
| 20260504020031 | 20 | 30 | 0.0 | 0.0 | 0.00 | 0.00 | 0.03 | 23 | 1007.8 |
| 20260504014529 | 20 | 30 | 0.0 | 0.0 | 0.00 | 0.00 | 0.03 | 23 | 1007.9 |
| 20260504013017 | 21 | 30 | 0.0 | 0.0 | 0.00 | 0.00 | 0.03 | 24 | 1008.1 |
| 20260504011515 | 21 | 30 | 0.0 | 0.0 | 0.00 | 0.00 | 0.03 | 17 | 1008.3 |
| 20260504010013 | 22 | 30 | 0.0 | 0.0 | 0.00 | 0.00 | 0.03 | 15 | 1008.4 |
| 20260504004513 | 22 | 30 | 0.0 | 0.0 | 0.00 | 0.00 | 0.00 | 17 | 1008.5 |
| 20260504003012 | 22 | 30 | 0.0 | 0.0 | 0.00 | 0.00 | 0.00 | 17 | 1008.5 |
| 20260504001511 | 22 | 30 | 0.0 | 0.0 | 0.00 | 0.00 | 0.00 | 17 | 1008.6 |
| 20260504000010 | 22 | 30 | 0.0 | 0.0 | 0.00 | 0.00 | 0.00 | 16 | 1008.7 |
| 20260503234510 | 22 | 30 | 0.0 | 0.0 | 0.00 | 0.00 | 0.00 | 14 | 1008.8 |
| 20260503233108 | 22 | 30 | 0.0 | 0.0 | 0.00 | 0.00 | 0.00 | 17 | 1008.8 |
| 20260503231555 | 22 | 30 | 0.0 | 0.0 | 0.00 | 0.00 | 0.00 | 14 | 1009.0 |
| 20260503224552 | 23 | 30 | 0.0 | 0.0 | 0.00 | 0.00 | 0.00 | 13 | 1009.4 |
| 20260503223050 | 23 | 30 | 0.0 | 0.0 | 0.00 | 0.00 | 0.00 | 14 | 1009.7 |
| 20260503221553 | 24 | 30 | 0.0 | 0.0 | 0.00 | 0.00 | 0.00 | 12 | 1009.9 |
| 20260503220045 | 24 | 30 | 0.0 | 0.0 | 0.00 | 0.00 | 0.00 | 17 | 1010.2 |
| 20260503214542 | 24 | 30 | 0.0 | 0.0 | 0.00 | 0.00 | 0.00 | 15 | 1010.7 |
| 20260503213040 | 24 | 30 | 0.0 | 0.0 | 0.00 | 0.00 | 0.00 | 13 | 1011.1 |
| 20260503211525 | 23 | 30 | 0.0 | 0.0 | 0.00 | 0.00 | 0.00 | 14 | 1011.4 |
| 20260503210022 | 23 | 30 | 0.0 | 0.0 | 0.00 | 0.00 | 0.00 | 14 | 1011.8 |
| 20260503204526 | 23 | 30 | 0.0 | 0.0 | 0.00 | 0.00 | 0.00 | 14 | 1012.1 |
| 20260503203018 | 23 | 30 | 0.0 | 0.0 | 0.00 | 0.00 | 0.00 | 14 | 1012.2 |
| 20260503201516 | 23 | 30 | 0.0 | 0.0 | 0.00 | 0.00 | 0.00 | 16 | 1012.5 |
| 20260503200012 | 22 | 30 | 0.0 | 0.0 | 0.00 | 0.00 | 0.00 | 14 | 1012.8 |
| 20260503194509 | 22 | 30 | 0.0 | 0.0 | 0.00 | 0.00 | 0.00 | 15 | 1013.1 |
| 20260503193015 | 22 | 30 | 0.0 | 0.0 | 0.00 | 0.00 | 0.00 | 18 | 1013.2 |
| 20260503191603 | 21 | 30 | 0.0 | 0.0 | 0.00 | 0.00 | 0.00 | 20 | 1013.5 |
| 20260503190048 | 21 | 30 | 0.0 | 0.0 | 0.00 | 0.00 | 0.00 | 19 | 1013.7 |
| 20260503184545 | 21 | 30 | 0.0 | 0.0 | 0.00 | 0.00 | 0.00 | 21 | 1014.1 |
| 20260503183058 | 21 | 30 | 0.0 | 0.0 | 0.00 | 0.00 | 0.00 | 26 | 1014.2 |
| 20260503181554 | 20 | 30 | 0.0 | 0.0 | 0.00 | 0.00 | 0.00 | 23 | 1014.6 |
| 20260503180037 | 19 | 5 | 0.0 | 0.0 | 0.00 | 0.00 | 0.00 | 25 | 1014.7 |
| 20260503174533 | 18 | 5 | 0.0 | 0.0 | 0.00 | 0.00 | 0.00 | 30 | 1014.8 |
| 20260503173029 | 17 | 5 | 0.0 | 0.0 | 0.00 | 0.00 | 0.00 | 30 | 1015.0 |
| 20260503171521 | 17 | 5 | 0.0 | 0.0 | 0.00 | 0.00 | 0.00 | 32 | 1015.2 |